Weather History for Patuxent River, MD

Change the Weather History Date:

Tuesday, November 27, 2012

  Actual Average Record
Temperature  
Mean Temperature 44 °F -  
Max Temperature 50 °F 56 °F 71 °F (1985)
Min Temperature 39 °F 40 °F 25 °F (2008)
Degree Days  
Heating Degree Days 20    
Moisture  
Dew Point 42 °F    
Average Humidity 84    
Maximum Humidity 93    
Minimum Humidity 76    
Precipitation  
Precipitation 0.13 in - - ()
Sea Level Pressure  
Sea Level Pressure 30.18 in    
Wind  
Wind Speed 8 mph (NNW)    
Max Wind Speed 17 mph    
Max Gust Speed -    
Visibility 9 miles    
Events Rain    
Averages and records for this station are not official NWS values.
T = Trace of Precipitation, MM = Missing Value Source: NWS Daily Summary

Daily Weather History Graph

Daily Weather History Graph

Search for Another Location

Airport:

Trip Planner

Search our weather history database for the weather conditions in past years. The results will help you decide how hot, cold, wet, or windy it might be!

Date:

Astronomy

Nov. 27, 2012 Rise Set
Actual Time 7:00 AM EST 4:46 PM EST
Civil Twilight 6:31 AM EST 5:15 PM EST
Nautical Twilight 5:58 AM EST 5:48 PM EST
Astronomical Twilight 5:26 AM EST 6:19 PM EST
Moon 4:16 PM EST (11/27) 6:03 AM EST (11/27)
Length of Visible Light 10h 44m
Length of Day
9h 46m
Waxing Gibbous, 99% of the Moon is Illuminated
Nov 27
Waxing Gibbous
Nov 28
Full
Dec 6
Last Quarter
Dec 13
New
Dec 20
First Quarter

Hourly Weather History & Observations

Time (EST) Temp. Windchill Dew Point Humidity Pressure Visibility Wind Dir Wind Speed Gust Speed Precip Events Conditions
12:52 AM 48.9 °F - 42.1 °F 77% 30.20 in 10.0 mi SE 5.8 mph - N/A   Overcast
1:52 AM 48.9 °F - 43.0 °F 80% 30.18 in 10.0 mi ESE 5.8 mph - N/A   Overcast
2:52 AM 48.9 °F - 43.0 °F 80% 30.19 in 10.0 mi East 5.8 mph - N/A   Overcast
3:52 AM 48.0 °F - 43.0 °F 83% 30.16 in 10.0 mi East 6.9 mph - N/A   Overcast
4:52 AM 48.9 °F - 44.1 °F 83% 30.16 in 10.0 mi SE 6.9 mph - N/A   Overcast
5:11 AM 48.2 °F - 44.6 °F 87% 30.17 in 10.0 mi SE 4.6 mph - N/A   Overcast
5:34 AM 48.2 °F - 44.6 °F 87% 30.19 in 10.0 mi Calm Calm - 0.00 in Rain Light Rain
5:52 AM 48.0 °F - 45.0 °F 89% 30.20 in 10.0 mi WNW 3.5 mph - 0.00 in Rain Light Rain
6:52 AM 48.0 °F - 44.1 °F 86% 30.19 in 7.0 mi East 5.8 mph - 0.01 in Rain Rain
7:52 AM 48.0 °F - 44.1 °F 86% 30.17 in 10.0 mi ESE 6.9 mph - 0.04 in Rain Light Rain
8:52 AM 48.9 °F - 46.0 °F 90% 30.17 in 7.0 mi ESE 4.6 mph - 0.02 in Rain Light Rain
9:52 AM 48.9 °F - 46.0 °F 90% 30.17 in 10.0 mi SE 5.8 mph - 0.01 in Rain Light Rain
10:37 AM 50.0 °F - 44.6 °F 82% 30.14 in 10.0 mi Calm Calm - 0.00 in   Overcast
10:52 AM 50.0 °F - 45.0 °F 83% 30.15 in 10.0 mi Calm Calm - 0.00 in   Overcast
11:27 AM 50.0 °F - 46.4 °F 87% 30.15 in 10.0 mi WNW 6.9 mph - 0.00 in   Light Drizzle
11:45 AM 48.2 °F - 46.4 °F 93% 30.14 in 8.0 mi NW 13.8 mph - 0.00 in   Light Drizzle
11:52 AM 48.9 °F - 45.0 °F 86% 30.14 in 7.0 mi NW 11.5 mph - 0.00 in   Light Drizzle
12:28 PM 46.4 °F 39.5 °F 44.6 °F 93% 30.14 in 10.0 mi WNW 17.3 mph - 0.00 in   Light Drizzle
12:52 PM 46.9 °F - 43.0 °F 86% 30.13 in 10.0 mi WNW 13.8 mph - 0.00 in   Light Drizzle
1:52 PM 46.0 °F 39.3 °F 42.1 °F 86% 30.14 in 4.0 mi NW 16.1 mph - 0.03 in Rain Light Rain
2:52 PM 44.1 °F 37.7 °F 39.9 °F 85% 30.15 in 6.0 mi NNW 12.7 mph - 0.02 in Rain Light Rain
3:52 PM 43.0 °F 36.8 °F 39.0 °F 86% 30.15 in 6.0 mi NNW 11.5 mph - 0.00 in   Overcast
4:52 PM 43.0 °F 36.8 °F 39.0 °F 86% 30.17 in 6.0 mi NW 11.5 mph - N/A   Overcast
5:52 PM 42.1 °F 34.5 °F 37.9 °F 85% 30.19 in 6.0 mi NW 15.0 mph - N/A   Overcast
6:52 PM 42.1 °F 35.2 °F 37.0 °F 82% 30.20 in 10.0 mi NW 12.7 mph - N/A   Overcast
7:52 PM 42.1 °F 35.2 °F 37.0 °F 82% 30.22 in 10.0 mi NW 12.7 mph - N/A   Overcast
8:52 PM 41.0 °F 33.9 °F 35.1 °F 79% 30.23 in 10.0 mi NW 12.7 mph - N/A   Overcast
9:52 PM 41.0 °F 33.1 °F 34.0 °F 76% 30.24 in 10.0 mi NW 15.0 mph - N/A   Overcast
10:52 PM 39.9 °F 32.5 °F 33.1 °F 77% 30.25 in 10.0 mi NW 12.7 mph - N/A   Overcast
11:52 PM 39.9 °F 33.4 °F 34.0 °F 79% 30.23 in 10.0 mi NW 10.4 mph - N/A   Overcast